Погода в Тит-Арах

Россия / Республика Саха (Якутия)     61°13′28″N   127°43′46″E
темп.,
°C
ветер,
м/с
пор.,
м/с
влажн.,
%
обл.,
%
осадки,
мм/ч
давл.,
гПа
погр.,
м
6 августа, пт
пт600:00+14всв235227 0.0 100350
03:00+12всв2753100 0.0 1003114
06:00+12всв295980 0.0 1003216
09:00+19всв4736100 0.0 1003462
12:00+24в4532100 0.0 1003970
15:00+26в473287 0.0 10022358
18:00+24вюв574182 0.0 10031744
21:00+18вюв41060100 0.0 1006892
7 августа, сб
сб700:00+16всв41355100 0.0 1006527
03:00+16в4115589 0.0 1007848
06:00+16вюв5115498 0.0 10091026
09:00+16вюв6124880 0.0 10101109
12:00+18вюв5114781 0.0 10121214
15:00+18юв51047100 0.0 10131220
18:00+20вюв61248100 0.0 10131316
21:00+18вюв61252100 0.0 10151147
8 августа, вс
вс800:00+16вюв51158100 0.0 1015934
03:00+14вюв4116536 0.0 1016618
06:00+13вюв496928 0.0 1017544
09:00+17вюв465622 0.0 1017730
12:00+22вюв574533 0.0 10161141
15:00+25юв46415 0.0 10141616
18:00+24юв46465 0.0 10141605
21:00+18вюв310645 0.0 1015278
9 августа, пн
пн900:00+14в24712 0.0 101672
03:00+12в23695 0.0 101656
06:00+12в26694 0.0 1016163
09:00+20вюв35490 0.0 1015511
12:00+25юв34420 0.0 10141343
15:00+27юв45390 0.0 10122061
18:00+26юв35435 0.0 10121817
21:00+18вюв311689 0.0 1014242
10 августа, вт
вт1000:00+15вюв22685 0.0 101446
03:00+13в22655 0.0 101534
06:00+13вюв23630 0.0 101679
09:00+21юв23440 0.0 1015445
12:00+26юв34380 0.0 10141544
15:00+28ююв35330 0.0 10132253
18:00+27ю34390 0.0 10131886
21:00+18ююз12640 0.0 101411